Weather History for Leadville, CO

Change the Weather History Date:

Monday, November 19, 2012

  Actual Average Record
Temperature  
Mean Temperature 31 °F -  
Max Temperature 42 °F 35 °F 55 °F (2007)
Min Temperature 20 °F 11 °F -9 °F (1980)
Degree Days  
Heating Degree Days 34 42  
Month to date heating degree days 681 727  
Since 1 July heating degree days 2641 2916  
Cooling Degree Days 0 0  
Month to date cooling degree days 0 0  
Year to date cooling degree days 0 0  
Moisture  
Dew Point 14 °F    
Average Humidity 50    
Maximum Humidity 77    
Minimum Humidity 22    
Precipitation  
Precipitation 0.00 in 0.02 in 0.14 in (2003)
Month to date precipitation 0.16 0.51  
Year to date precipitation 10.30 11.45  
Sea Level Pressure  
Sea Level Pressure 30.19 in    
Wind  
Wind Speed 7 mph (North)    
Max Wind Speed 15 mph    
Max Gust Speed 22 mph    
Visibility 10 miles    
Events      
T = Trace of Precipitation, MM = Missing Value Source: NWS Daily Summary

Daily Weather History Graph

Daily Weather History Graph

Search for Another Location

Airport:

Trip Planner

Search our weather history database for the weather conditions in past years. The results will help you decide how hot, cold, wet, or windy it might be!

Date:

Astronomy

Nov. 19, 2012 Rise Set
Actual Time 6:53 AM MST 4:47 PM MST
Civil Twilight 6:24 AM MST 5:16 PM MST
Nautical Twilight 5:52 AM MST 5:49 PM MST
Astronomical Twilight 5:20 AM MST 6:20 PM MST
Moon 11:59 AM MST (11/19) 11:16 PM MST (11/19)
Length of Visible Light 10h 51m
Length of Day
9h 53m
Waxing Crescent, 41% of the Moon is Illuminated
Nov 19
Waxing Crescent
Nov 20
First Quarter
Nov 28
Full
Dec 6
Last Quarter
Dec 13
New

Hourly Weather History & Observations

Time (MST) Temp. Windchill Dew Point Humidity Pressure Visibility Wind Dir Wind Speed Gust Speed Precip Events Conditions
12:53 AM 23.0 °F 15.8 °F 14.0 °F 68% 30.08 in 10.0 mi North 5.8 mph - N/A   Partly Cloudy
1:53 AM 23.0 °F 13.9 °F 16.0 °F 74% 30.14 in 10.0 mi North 8.1 mph - N/A   Scattered Clouds
2:53 AM 24.1 °F - 17.1 °F 75% 30.13 in 10.0 mi Calm Calm - N/A   Clear
3:53 AM 25.0 °F 15.5 °F 17.1 °F 72% 30.12 in 10.0 mi North 9.2 mph - N/A   Clear
4:53 AM 26.1 °F 18.4 °F 16.0 °F 66% 30.17 in 10.0 mi NNW 6.9 mph - N/A   Clear
5:53 AM 21.9 °F 17.2 °F 15.1 °F 75% 30.23 in 10.0 mi North 3.5 mph - N/A   Clear
6:53 AM 21.0 °F 12.4 °F 15.1 °F 78% 30.26 in 10.0 mi NE 6.9 mph - N/A   Clear
7:53 AM 23.0 °F 14.7 °F 15.1 °F 72% 30.26 in 10.0 mi East 6.9 mph - N/A   Clear
8:53 AM 30.9 °F 24.3 °F 16.0 °F 54% 30.22 in 10.0 mi NNE 6.9 mph - N/A   Clear
9:53 AM 35.1 °F 27.9 °F 16.0 °F 46% 30.19 in 10.0 mi NNW 9.2 mph - N/A   Clear
10:53 AM 37.0 °F 30.4 °F 14.0 °F 39% 30.19 in 10.0 mi WNW 9.2 mph - N/A   Clear
11:53 AM 39.0 °F 31.8 °F 12.9 °F 34% 30.17 in 10.0 mi North 11.5 mph - N/A   Clear
12:53 PM 39.9 °F 32.5 °F 12.0 °F 32% 30.14 in 10.0 mi NNW 12.7 mph - N/A   Clear
1:53 PM 42.1 °F 36.1 °F 9.0 °F 26% 30.12 in 10.0 mi NW 10.4 mph - N/A   Clear
2:53 PM 42.1 °F 37.7 °F 7.0 °F 24% 30.12 in 10.0 mi Variable 6.9 mph - N/A   Clear
3:53 PM 39.0 °F 32.8 °F 10.0 °F 30% 30.15 in 10.0 mi NNW 9.2 mph - N/A   Clear
4:53 PM 33.1 °F 27.7 °F 15.1 °F 48% 30.19 in 10.0 mi North 5.8 mph - N/A   Clear
5:53 PM 28.9 °F 23.9 °F 12.9 °F 51% 30.27 in 10.0 mi North 4.6 mph - N/A   Clear
6:53 PM 28.0 °F 21.7 °F 15.1 °F 58% 30.29 in 10.0 mi NNE 5.8 mph - N/A   Clear
7:53 PM 27.0 °F 19.5 °F 16.0 °F 63% 30.30 in 10.0 mi NNE 6.9 mph - N/A   Clear
8:53 PM 26.1 °F 20.5 °F 15.1 °F 63% 30.24 in 10.0 mi ENE 4.6 mph - N/A   Clear
9:53 PM 25.0 °F 16.3 °F 12.0 °F 58% 30.23 in 10.0 mi ENE 8.1 mph - N/A   Clear
10:53 PM 27.0 °F 18.7 °F 10.0 °F 49% 30.20 in 10.0 mi North 8.1 mph - N/A   Clear
11:53 PM 23.0 °F 14.7 °F 10.0 °F 58% 30.24 in 10.0 mi NNE 6.9 mph - N/A   Clear